[TLELIST] Archives

 

Current TLEs <08 APRIL 2005>

April 9th 2005 PST

** Sorry for late posting as I have been down with a bad chest infection ** HST 1 20580U 90037B 05098.18180769 .00001181 00000-0 80468-4 0 3115 2 20580 28.4690 4.8911 0003769 244.8375 115.1835 14.99661948619723 ISS 1 25544U 98067A 05099.32681238 .00026546 00000-0 21211-3 0 2037 2 25544 51.6446 253.3469 0006218 351.5454 84.3045 15.70892996364850 CHANDRA 1 25867U 99040B 05099.08333333 .00000000 00000-0 00000+0 0 7750 2 25867 56.3314 104.9 ...Continue Reading

Current TLEs <30 MARCH 2005>

March 30th 2005 PST

HST 1 20580U 90037B 05088.19913222 .00000724 00000-0 44248-4 0 3043 2 20580 28.4675 69.9384 0003934 147.7751 212.3076 14.99649190618221 ISS 1 25544U 98067A 05089.38722222 .00016852 00000-0 13912-3 0 1285 2 25544 51.6460 304.1296 0005571 310.6679 45.7722 15.70445801363283 CHANDRA 1 25867U 99040B 05088.50000000 .00000000 00000-0 00000+0 0 7713 2 25867 56.2431 105.1880 5669351 300.3684 355.8652 0.37803274 1215 These 2-Line Elements (TLEs) ...Continue Reading

Current TLEs <25 MARCH 2005>

March 25th 2005 PST

HST 1 20580U 90037B 05083.47397082 .00000874 00000-0 56166-4 0 3014 2 20580 28.4673 100.7220 0003657 98.4082 261.6922 14.99644257617510 ISS 1 25544U 98067A 05085.02192321 .00030403 00000-0 24820-3 0 965 2 25544 51.6471 326.4255 0005700 292.9167 208.4544 15.70300524362602 CHANDRA 1 25867U 99040B 05084.00000000 .00000000 00000-0 00000+0 0 7691 2 25867 56.1808 105.3428 5663220 300.3903 103.1222 0.37803505 1219 These 2-Line Elements (TLEs) ...Continue Reading

Current TLEs <23 MARCH 2005>

March 23rd 2005 PST

HST 1 20580U 90037B 05082.20948699 .00000908 00000-0 58912-4 0 3008 2 20580 28.4673 108.9587 0003566 85.2917 274.8076 14.99642625617328 ISS 1 25544U 98067A 05082.34448137 .00018880 00000-0 15017-3 0 745 2 25544 51.6483 340.1070 0003578 225.5304 242.6066 15.71254438362184 CHANDRA 1 25867U 99040B 05081.33333333 .00000000 00000-0 00000+0 0 7681 2 25867 56.1958 105.4007 5658591 300.4523 100.0345 0.37800081 1211 These 2-Line Elements (TLEs) ...Continue Reading

Current TLEs <21 MARCH 2005>

March 21st 2005 PST

HST 1 20580U 90037B 05080.54569019 .00001009 00000-0 66901-4 0 2995 2 20580 28.4671 119.7958 0003605 66.8313 293.2656 14.99640548617070 ISS 1 25544U 98067A 05080.88398162 .00021330 00000-0 16935-3 0 636 2 25544 51.6480 347.5738 0003584 217.0192 264.3880 15.71205491361955 CHANDRA 1 25867U 99040B 05078.70833333 .00000000 00000-0 00000+0 0 7672 2 25867 56.2012 105.4362 5658348 300.5385 102.6505 0.37805791 1213 These 2-Line Elements (TLEs) ...Continue Reading

Current TLEs <18 MARCH 2005>

March 18th 2005 PST

HST 1 20580U 90037B 05077.55084743 .00001161 00000-0 78930-4 0 2970 2 20580 28.4667 139.3030 0003534 33.8974 326.1845 14.99635772616621 ISS 1 25544U 98067A 05078.01939630 .00026232 00000-0 20809-3 0 438 2 25544 51.6474 2.2190 0003559 206.0362 262.0571 15.71087869361504 CHANDRA 1 25867U 99040B 05075.25000000 .00000000 00000-0 00000+0 0 7665 2 25867 56.1791 105.4830 5663250 300.6060 351.8663 0.37799283 1216 These 2-Line Elements (TLEs) ...Continue Reading

Current TLEs <14 MARCH 2005>

March 14th 2005 PST

HST 1 20580U 90037B 05073.55770651 .00000967 00000-0 63587-4 0 2948 2 20580 28.4666 165.3229 0003388 345.7279 14.3212 14.99627717616027 ISS 1 25544U 98067A 05073.81740838 .00021455 00000-0 17282-3 0 142 2 25544 51.6482 23.6966 0003682 190.4606 257.2511 15.70853844360844 CHANDRA 1 25867U 99040B 05072.62500000 .00000000 00000-0 00000+0 0 7657 2 25867 56.1410 105.5671 5665340 300.5867 354.5546 0.37807147 1213 These 2-Line Elements (TLEs) ...Continue Reading

Current TLEs <09 MARCH 2005>

March 9th 2005 PST

HST 1 20580U 90037B 05067.70106794 .00000707 00000-0 42977-4 0 2907 2 20580 28.4661 203.4783 0003682 282.9331 77.0846 14.99616659615143 ISS 1 25544U 98067A 05069.04365943 .00018890 00000-0 15417-3 0 9812 2 25544 51.6464 48.0877 0004139 171.0183 264.4485 15.70632412360092 CHANDRA 1 25867U 99040B 05067.29166667 .00000000 00000-0 00000+0 0 7639 2 25867 56.1108 105.7480 5649657 300.5891 348.5535 0.37788236 1215 These 2-Line Elements (TLEs) ...Continue Reading

Current TLEs <02 MARCH 2005>

March 2nd 2005 PST

HST 1 20580U 90037B 05060.57989116 .00000743 00000-0 45830-4 0 2857 2 20580 28.4667 249.8706 0003837 210.2776 149.7587 14.99611625614075 ISS 1 25544U 98067A 05061.36548611 .00015662 00000-0 12989-3 0 9257 2 25544 51.6451 87.3066 0004256 149.9398 45.5647 15.70406427358883 CHANDRA 1 25867U 99040B 05059.41666667 .00000000 00000-0 00000+0 0 7606 2 25867 56.0547 105.8525 5646756 300.8845 356.2226 0.37802416 1211 These 2-Line Elements (TLEs) ...Continue Reading

Current TLEs <28 FEBRUARY 2005>

February 28th 2005 PST

HST 1 20580U 90037B 05058.91606277 .00000787 00000-0 49337-4 0 3053 2 20580 28.4671 260.7095 0003902 193.4064 166.6421 14.99610054613820 ISS 1 25544U 98067A 05058.75104167 .00013727 00000-0 11490-3 0 9087 2 25544 51.6461 100.6587 0004408 140.2796 25.0064 15.70314256358475 CHANDRA 1 25867U 99040B 05059.41666667 .00000000 00000-0 00000-0 0 7607 2 25867 56.0547 105.8525 5646756 300.8845 356.2226 0.37802416 1211 These 2-Line Elements (TLEs) are from US Space Command courtesy TS Kelso's Celestial BB ...Continue Reading
  • This mailing list is a public mailing list - anyone may join or leave, at any time.
  • This mailing list is announce-only.

International Space Station (ISS) / Hubble Space Telescope (HST) / Chandra X-Ray Observatory Orbital Data via EMAIL

Privacy Policy:

Private list